Regional Weather Roundup
Issued by NWS Wakefield, VA

Home | Current Version | Previous Version | Text Only | Print | Product List | Glossary Off
Versions: 1 2 3 4 5 6 7 8 9 10 11 12 13 14 15 16 17 18 19 20 21 22 23 24 25 26 27 28 29 30 31 32 33 34 35 36 37 38 39 40 41 42 43 44 45 46 47 48 49 50

000
ASUS41 KAKQ 240710
RWRAKQ

REGIONAL WEATHER ROUNDUP
NATIONAL WEATHER SERVICE WAKEFIELD VA
300 AM EDT THU JUL 24 2014

Note: "fair" indicates few or no clouds below 12,000 feet with no
significant weather and/or obstructions to visibility. * = Denotes
station may not report precipitation (e.g., rain,snow,etc.),
thunder or fog.

VAZ042-051-052>054-056-240800-
NORTHERN VIRGINIA

CITY           SKY/WX    TMP DP  RH WIND       PRES   REMARKS
WASH NATIONAL  CLOUDY    78  69  73 N5        29.86F
DULLES         CLOUDY    76  68  76 NW9       29.87S
FORT BELVOIR   CLOUDY    74  72  94 CALM      29.86S FOG
QUANTICO       CLOUDY    76  71  85 NW5       29.86S
FREDERICKSBRG* CLOUDY    76  71  83 NW5       29.85F
STAFFORD*      CLOUDY    73  73 100 CALM      29.90F
WARRENTON      CLOUDY    73  73 100 CALM      29.87F
CULPEPER*      CLOUDY   N/A N/A N/A CALM      29.89S
MANASSAS*      CLOUDY    73  73 100 CALM      29.88R
LEESBURG*      LGT RAIN  75  72  88 N7        29.90R
WINCHESTER     RAIN      72  70  94 N3        29.91F
$$

VAZ048-049-060>072-079>083-240800-
CENTRAL AND SOUTH CENTRAL VIRGINIA...AND NORTH CENTRAL NORTH CAROLINA

CITY           SKY/WX    TMP DP  RH WIND       PRES   REMARKS
RICHMOND       CLOUDY    80  68  66 CALM      29.85F
CHESTERFIELD*  CLOUDY    79  64  61 CALM      29.87F
HANOVER        CLOUDY    75  69  81 CALM      29.87F
TAPPAHANNOCK*  CLOUDY    73  70  88 CALM      29.85F
CHARLOTTSVILLE LGT RAIN  73  69  87 VRB3      29.89F
ORANGE*        LGT RAIN  73  70  88 CALM      29.90S
LOUISA*        CLOUDY    73  72  94 CALM      29.87S
FARMVILLE*     CLOUDY    75  70  83 CALM      29.85
SOUTH HILL*    MOCLDY    79  73  83 S6        29.93S
ROANOKE RAPIDS PTSUNNY   75  72  88 SW7       29.88F
RALEIGH        MOCLDY    76  72  87 SW9       29.92S
$$

VAZ088>098-240800-
SOUTHEAST VIRGINIA

CITY           SKY/WX    TMP DP  RH WIND       PRES   REMARKS
NORFOLK        MOCLDY    79  73  82 SW13      29.85F
VIRGINIA BEACH PTCLDY    78  74  87 SW12      29.84F
NORFOLK NAVAL  MOCLDY    80  74  81 SW7       29.86F
WEST POINT*    MOCLDY    80  73  79 W3        29.85F
NEWPORT NEWS   MOCLDY    83  73  72 W10       29.85S
LANGLEY AFB    PTCLDY    79  76  91 SW10      29.84F
FORT EUSTIS    MOCLDY    79  75  87 SW5       29.83F
WILLIAMSBURG*  MOCLDY    82  75  78 W5        29.85F
FRANKLIN*      MOCLDY    77  73  88 SW6       29.86F
WAKEFIELD      MOCLDY    79  72  79 W3        29.86S
$$

VAZ020-022-025-037-045-240800-
WESTERN AND SOUTHWEST VIRGINIA

CITY           SKY/WX    TMP DP  RH WIND       PRES   REMARKS
STAUNTON*      LGT RAIN  71  68  93 CALM      29.96F
HOT SPRINGS VA DRIZZLE   63  58  85 N7        30.08F
LYNCHBURG      CLOUDY    78  66  66 N9        29.92S
DANVILLE       MOCLDY    74  71  91 SW5       29.91F
MARTINSVILLE   CLOUDY    71  69  95 CALM      29.95F
ROANOKE        CLOUDY    73  63  68 N9        29.96F
BLACKSBURG     CLOUDY    72  68  88 CALM      30.02F
DUBLIN*        CLOUDY    73  67  81 CALM      30.01F
MARION*        CLOUDY    69  69 100 SW6       30.05F
HILLSVILLE*    CLOUDY    69  65  87 NW7       30.04S
RICHLANDS*     CLOUDY    70  67  90 CALM      30.04F
WISE*          CLOUDY    66  66 100 CALM      30.04F
ABINGDON*      MOCLDY    70  69  97 CALM      30.02F FOG
$$

MDZ021>025-VAZ099-100-240800-
SOUTHERN MARYLAND AND THE DELMARVA PENINSULA

CITY           SKY/WX    TMP DP  RH WIND       PRES   REMARKS
PATUXENT RIVER MOCLDY    74  72  93 CALM      29.83S
BAY BRIDGE APT   N/A     77  72  83 NW5       29.84S
LEONARDTOWN    MOCLDY    72  70  94 CALM      29.86S
DOVER          PTCLDY    72  72 100 NW7       29.81S
GEORGETOWN     MOCLDY    73  71  93 VRB6      29.83R
EASTON         CLOUDY    74  74 100 CALM      29.87S
CAMBRIDGE      CLOUDY    73  70  88 CALM      29.83S
SALISBURY      NOT AVBL
OCEAN CITY     CLOUDY    73  70  90 E5        29.82F
WALLOPS ISLAND MOCLDY    79  73  82 N6        29.82F
ACCOMACK*        N/A     73  72  94 SE3       29.83F FOG
$$

NCZ012>017-030>032-240800-
EASTERN NORTH CAROLINA

CITY           SKY/WX    TMP DP  RH WIND       PRES   REMARKS
ELIZABETH CITY CLEAR     77  75  93 SW12      29.88F
AHOSKIE*       PTCLDY    75  72  91 CALM      29.88F
EDENTON*       CLEAR     78  74  89 SW8       29.89F
CURRITUCK*     CLEAR     78  74  87 SW7       29.87F
KILL DEVIL HLS CLEAR     78  74  88 SW8G17    29.87F
MANTEO         NOT AVBL
CAPE HATTERAS  CLEAR     79  77  94 W9        29.91F
GOLDSBORO      PTCLDY    77  76  98 SW8       29.91S
WASHINGTON     PTCLDY    75  73  94 SW7       29.91F
GREENVILLE     PTCLDY    77  73  88 SW9       29.93S
NEW BERN       CLEAR     77  73  87 SW6       29.93F
WILMINGTON     PTCLDY    78  76  93 SW6       29.94F
$$

VAZ048-240800-
ELSEWHERE

CITY           SKY/WX    TMP DP  RH WIND       PRES   REMARKS
HARRISBURG PA  CLOUDY    74  63  68 NW10      29.87S
BALTIMORE      CLOUDY    74  71  91 CALM      29.84F
ANNAPOLIS      CLOUDY    76  72  87 CALM      29.83F
ANDREWS AFB    CLOUDY    78  70  77 NW9       29.86S
WILMINGTON DE  MOCLDY    71  70  96 NW7       29.85F
PHILADELPHIA   CLOUDY    75  66  73 N10       29.83F
WILDWOOD NJ*   MOCLDY    72  68  88 CALM      29.83S
ATLANTIC CITY  MOCLDY    71  68  90 NW3       29.81F
HENDERSON NC   CLOUDY    75  71  86 SW6       29.91S
GREENSBORO     CLOUDY    74  69  85 SW8       29.93S
ROCKY MOUNT    MOCLDY    77  74  90 SW8       29.90F
FAYETTEVILLE   MOCLDY    77  74  90 SW10      29.93F
CHARLOTTE      CLEAR     73  69  87 S5        29.94F
$$

VAZ100-240800-
MARINE

STATION/POSITION TIME  TEMP    WIND        PRES    WAVE   SWELL
                       AIR SEA DIR/SP/G            HT/PER HT/PER
                 (UTC) (F)     (DEG/KT/KT) (MB)    (FT/S) (FT/S)
44066 TX TWR #4  0700   75 74  240/ 14/ 16 1008.6F   3/ 4   2/ 9
CAPE MAY NJ      0600   72 77  340/  2/  4 1009.2F
LEWES DE         0600   73 70  230/  4/  5 1009.5F
15NM E FENWICK I 0700   75 76              1009.9F   3/ 9
OCEAN-CITY-INLET 0600   73 73  100/  4/  5 1009.6S
WACHAPREAGUE VA  0600   75 84  330/  5/  6 1010.6R
THOMAS POINT MD  0600   77 80  330/  3/  3 1011.0F
GOOSES REEF MD   0700   78     290/  8/ 10 1010.9F
COVE POINT MD    0600   76     290/  7/  8 1010.2F
SOLOMONS ISLAND  0600      82                N/A
BISHOPS HEAD MD  0600   79 81  280/ 10/ 12 1009.8R
PINEY POINT MD   0600          270/  5/  6   N/A
POTOMAC MD       0700   79     290/  8/ 10 1009.3F
CAMBRIDGE MD     0600   75 80  230/  2/  4 1010.0F
LEWISETTA VA     0600   78 81  290/  4/  5 1010.1F
RAPPAHANNOCK LGT 0600          250/  6/  7 1010.8F
STINGRAY PT      0700   81     290/  8/  8 1010.9F
YORK RVR RNG VA  0600   81     280/ 11/ 13 1010.0F
YORKTOWN VA      0600   81 81  250/  6/  8 1010.4F
JAMESTOWN VA     0700   78     280/  6/  8   N/A
DOMINION TERM VA 0600   80     240/ 13/ 15 1010.6F
KIPTOPEKE VA     0600      82  250/ 14/ 18   N/A
CHES BAY BRIDGE  0600   80 77  210/ 15/ 20 1009.9F
CAPE HENRY VA    0600   79     220/  9/ 15 1009.4F
WILLOUBY STN VA  0600          250/ 10/ 12 1010.0F
S CRANEY ISL VA  0600          210/  9/ 15 1010.7F
CAPE HENRY BUOY  0600      78                N/A     2/ 4
1ST LANDING BUOY 0700   80     240/ 14/ 17 1010.3S
CAPE CHARLES BUO 0700      76                N/A     2/ 8
OFFSHORE WE BUOY 0600      78                N/A     3/ 4
64NM E OF VA BCH 0700   79 79  230/ 14/ 17 1010.6F   4/ 7   2/ 7
DUCK PIER NC     0600   79 74  230/ 13/ 17 1011.2F
44056 DUCK FRF   0600                        N/A     2/ 8
OREGON INLET NC  0600   80 84  220/ 17/ 20 1012.1F
HATTERAS NC      0600   78 82  230/  9/ 14 1013.3F
DIAMOND SHLS NC  0700          VRB 17/ 21  1012.6F   4/ 4   2/ 9
CAPE LOOKOUT NC  0600   80     240/ 11/ 14 1013.8F
$$


USA.gov is the U.S. government's official web portal to all federal, state and local government web resources and services.